Date,TemperatureHighF,TemperatureAvgF,TemperatureLowF,DewpointHighF,DewpointAvgF,DewpointLowF,HumidityHigh,HumidityAvg,HumidityLow,PressureMaxIn,PressureMinIn,WindSpeedMaxMPH,WindSpeedAvgMPH,GustSpeedMaxMPH,PrecipitationSumIn
2013-3-1,55.9,41.5,31.3,27.0,23.6,-3.1,71,50,15,30.29,30.20,10,3,10,0.00
2013-3-2,51.1,39.0,28.2,21.8,12.6,-10.4,66,40,8,30.41,30.23,8,2,13,0.00
2013-3-3,67.8,50.5,31.5,37.8,15.8,-12.6,64,34,4,30.23,29.82,17,7,17,0.00
2013-3-4,80.2,64.3,53.8,49.7,41.4,-16.4,71,47,2,29.85,29.64,16,10,16,0.00
2013-3-5,64.2,49.2,36.1,48.6,10.8,-11.8,58,28,7,30.35,29.79,20,6,20,0.00
2013-3-6,59.2,44.8,32.4,18.6,6.1,-11.0,51,27,6,30.47,30.20,10,2,10,0.00
2013-3-7,67.5,52.4,37.9,28.0,8.9,-12.7,49,25,4,30.26,30.15,13,3,13,0.00
2013-3-8,66.2,58.4,51.1,53.7,46.4,27.6,80,65,36,30.23,30.03,6,3,7,0.00
2013-3-9,69.6,64.3,59.7,63.5,58.6,53.2,93,82,77,30.03,29.70,13,6,13,0.06
2013-3-10,63.5,50.4,37.6,62.8,43.3,28.3,100,79,50,30.09,29.73,10,4,10,0.84
2013-3-11,54.9,42.1,32.5,31.5,24.2,-8.9,86,55,7,30.15,30.03,8,2,8,0.00
2013-3-12,62.6,48.6,33.1,32.3,17.4,-10.8,75,39,5,30.32,30.06,9,2,9,0.00
2013-3-13,64.4,52.4,38.5,33.9,26.0,-5.1,69,40,6,30.47,30.32,9,2,9,0.00
2013-3-14,73.8,58.0,43.3,41.6,35.3,28.0,59,44,27,30.35,30.20,13,4,13,0.00
2013-3-15,77.4,63.5,51.1,53.9,44.4,34.8,90,55,22,30.20,29.91,18,7,18,0.00
2013-3-16,79.2,67.1,56.1,56.3,51.8,42.9,91,60,40,29.91,29.73,17,9,17,0.00
2013-3-17,76.5,67.1,56.8,61.8,54.4,46.5,86,65,44,29.82,29.70,15,5,15,0.00
2013-3-18,68.2,61.0,51.6,64.1,45.5,31.7,95,60,36,30.03,29.67,13,6,13,0.00
2013-3-19,70.3,56.3,44.4,40.5,31.7,23.2,73,43,22,30.15,30.00,10,4,10,0.00
2013-3-20,64.2,54.9,45.1,30.4,15.1,-10.8,54,29,5,30.32,30.06,10,3,11,0.00
2013-3-21,70.3,58.8,49.8,47.9,34.0,24.6,56,40,28,30.06,29.64,13,4,13,0.00
2013-3-22,63.7,53.3,47.3,58.1,46.9,40.2,91,79,59,29.85,29.61,13,5,13,0.00
2013-3-23,57.6,50.1,46.4,53.6,47.9,44.8,100,92,80,29.88,29.67,9,3,9,0.04
2013-3-24,50.9,44.8,37.8,49.5,28.7,16.1,100,57,29,30.17,29.79,15,5,16,0.01
2013-3-25,51.8,40.6,27.7,21.9,5.8,-13.2,65,31,7,30.41,30.17,13,4,13,0.00
2013-3-26,54.1,41.1,28.6,17.7,4.9,-11.9,48,28,7,30.50,30.32,8,1,8,0.00
2013-3-27,68.7,51.5,34.3,32.4,15.4,-12.7,52,32,4,30.35,30.15,14,4,14,0.00
2013-3-28,75.6,61.9,48.7,54.0,47.1,32.0,81,60,42,30.23,30.11,13,5,13,0.00
2013-3-29,77.9,67.7,59.9,57.8,54.5,52.1,82,64,43,30.23,30.06,13,5,13,0.00
2013-3-30,78.6,66.4,55.6,72.0,62.1,53.4,100,87,66,30.11,29.91,12,3,12,0.78
2013-3-31,72.0,64.9,57.2,67.8,59.3,13.4,100,84,52,30.03,29.85,17,4,17,0.70